Weather History for Taylorville, IL

Change the Weather History Date:

Sunday, August 25, 2013

  Actual Average (KSPI) Record (KSPI)
Temperature  
Mean Temperature 76 °F 74 °F  
Max Temperature 91 °F 85 °F 100 °F (1936)
Min Temperature 62 °F 63 °F 45 °F (1958)
Degree Days  
Heating Degree Days 0 0  
Month to date heating degree days 0  
Since 1 June heating degree days 16  
Since 1 July heating degree days 1  
Cooling Degree Days 12 9  
Month to date cooling degree days 242  
Year to date cooling degree days 921  
Since 1 June cooling degree days 817  
Growing Degree Days 26 (Base 50)    
Moisture  
Dew Point 65 °F    
Average Humidity 70    
Maximum Humidity 100    
Minimum Humidity 38    
Precipitation  
Precipitation 0.00 in 0.10 in 1.95 in (1975)
Month to date precipitation 2.62  
Year to date precipitation 25.03  
Snow  
Snow 0.00 in 0.00 in 0.00 in ()
Month to date snowfall 0.0  
Since 1 June snowfall 0.0  
Since 1 July snowfall 0.0  
Snow Depth -    
Sea Level Pressure  
Sea Level Pressure 30.23 in    
Wind  
Wind Speed 4 mph (SSE)    
Max Wind Speed 8 mph    
Max Gust Speed -    
Visibility 10 miles    
Events      
T = Trace of Precipitation, MM = Missing Value Source: NWS Daily Summary

Daily Weather History Graph

Daily Weather History Graph

Search for Another Location

Airport:

Trip Planner

Search our weather history database for the weather conditions in past years. The results will help you decide how hot, cold, wet, or windy it might be!

Date:

Astronomy

Aug. 25, 2013 Rise Set
Actual Time 6:19 AM CDT 7:38 PM CDT
Civil Twilight 5:51 AM CDT 8:06 PM CDT
Nautical Twilight 5:17 AM CDT 8:39 PM CDT
Astronomical Twilight 4:42 AM CDT 9:15 PM CDT
Moon 10:11 PM CDT (8/25) 11:19 AM CDT (8/25)
Length of Visible Light 14h 15m
Length of Day
13h 19m
Waning Gibbous, 75% of the Moon is Illuminated
Aug 25
Waning Gibbous
Aug 28
Last Quarter
Sep 5
New
Sep 12
First Quarter
Sep 19
Full

Hourly Weather History & Observations

Time (CDT) Temp. Heat Index Dew Point Humidity Pressure Visibility Wind Dir Wind Speed Gust Speed Precip Events Conditions
12:15 AM 71.6 °F - 66.2 °F 83% 30.22 in 10.0 mi SE 3.5 mph - N/A   Clear
12:35 AM 69.8 °F - 66.2 °F 88% 30.22 in 10.0 mi SE 4.6 mph - N/A   Clear
12:55 AM 69.8 °F - 66.2 °F 88% 30.21 in 10.0 mi SSE 4.6 mph - N/A   Clear
1:15 AM 69.8 °F - 66.2 °F 88% 30.21 in 10.0 mi SSE 3.5 mph - N/A   Clear
1:35 AM 68.0 °F - 66.2 °F 94% 30.21 in 10.0 mi SE 3.5 mph - N/A   Clear
1:55 AM 66.2 °F - 64.4 °F 94% 30.21 in 10.0 mi SSE 3.5 mph - N/A   Clear
2:15 AM 66.2 °F - 64.4 °F 94% 30.22 in 10.0 mi SE 4.6 mph - N/A   Clear
2:35 AM 68.0 °F - 64.4 °F 88% 30.22 in 10.0 mi Calm Calm - N/A   Clear
2:55 AM 66.2 °F - 64.4 °F 94% 30.22 in 10.0 mi Calm Calm - N/A   Clear
3:15 AM 66.2 °F - 64.4 °F 94% 30.23 in 10.0 mi Calm Calm - N/A   Clear
3:35 AM 64.4 °F - 64.4 °F 100% 30.23 in 10.0 mi SSE 3.5 mph - N/A   Clear
3:55 AM 64.4 °F - 62.6 °F 94% 30.23 in 10.0 mi Calm Calm - N/A   Clear
4:15 AM 64.4 °F - 62.6 °F 94% 30.23 in 10.0 mi SSE 3.5 mph - N/A   Clear
4:35 AM 64.4 °F - 62.6 °F 94% 30.23 in 10.0 mi SSE 3.5 mph - N/A   Clear
4:55 AM 64.4 °F - 62.6 °F 94% 30.24 in 10.0 mi Calm Calm - N/A   Clear
5:15 AM 64.4 °F - 62.6 °F 94% 30.24 in 10.0 mi Calm Calm - N/A   Clear
5:35 AM 62.6 °F - 62.6 °F 100% 30.25 in 10.0 mi Calm Calm - N/A   Clear
5:55 AM 62.6 °F - 60.8 °F 94% 30.25 in 10.0 mi Calm Calm - N/A   Clear
6:15 AM 62.6 °F - 62.6 °F 100% 30.26 in 10.0 mi Calm Calm - N/A   Clear
6:35 AM 64.4 °F - 62.6 °F 94% 30.27 in 10.0 mi Calm Calm - N/A   Clear
6:55 AM 64.4 °F - 62.6 °F 94% 30.28 in 10.0 mi Calm Calm - N/A   Clear
7:15 AM 64.4 °F - 62.6 °F 94% 30.28 in 10.0 mi SSE 4.6 mph - N/A   Clear
7:35 AM 68.0 °F - 66.2 °F 94% 30.28 in 10.0 mi Calm Calm - N/A   Clear
7:55 AM 71.6 °F - 66.2 °F 83% 30.28 in 10.0 mi Calm Calm - N/A   Clear
8:15 AM 73.4 °F - 66.2 °F 78% 30.28 in 10.0 mi South 4.6 mph - N/A   Clear
8:35 AM 75.2 °F - 66.2 °F 73% 30.27 in 10.0 mi South 4.6 mph - N/A   Clear
8:55 AM 78.8 °F - 66.2 °F 65% 30.27 in 10.0 mi South 5.8 mph - N/A   Clear
9:15 AM 80.6 °F 82.7 °F 66.2 °F 61% 30.27 in 10.0 mi SSW 4.6 mph - N/A   Clear
9:35 AM 82.4 °F 85.4 °F 68.0 °F 62% 30.27 in 10.0 mi SSW 5.8 mph - N/A   Clear
9:55 AM 84.2 °F 87.3 °F 68.0 °F 58% 30.27 in 10.0 mi SSW 5.8 mph - N/A   Clear
10:15 AM 84.2 °F 88.4 °F 69.8 °F 62% 30.27 in 10.0 mi SSW 4.6 mph - N/A   Clear
10:35 AM 86.0 °F 89.4 °F 68.0 °F 55% 30.27 in 10.0 mi SSW 5.8 mph - N/A   Clear
10:55 AM 87.8 °F 90.4 °F 66.2 °F 49% 30.27 in 10.0 mi SSW 5.8 mph - N/A   Clear
11:15 AM 87.8 °F 90.4 °F 66.2 °F 49% 30.27 in 10.0 mi SSW 4.6 mph - N/A   Clear
11:35 AM 87.8 °F 90.4 °F 66.2 °F 49% 30.26 in 10.0 mi SSW 6.9 mph - N/A   Clear
11:55 AM 89.6 °F 92.2 °F 66.2 °F 46% 30.26 in 10.0 mi South 3.5 mph - N/A   Clear
12:15 PM 89.6 °F 92.2 °F 66.2 °F 46% 30.25 in 10.0 mi SW 4.6 mph - N/A   Clear
12:35 PM 89.6 °F 92.2 °F 66.2 °F 46% 30.25 in 10.0 mi SSW 4.6 mph - N/A   Clear
12:55 PM 91.4 °F 94.0 °F 66.2 °F 43% 30.24 in 10.0 mi SSW 4.6 mph - N/A   Clear
1:15 PM 91.4 °F 94.0 °F 66.2 °F 43% 30.24 in 10.0 mi South 4.6 mph - N/A   Clear
1:35 PM 91.4 °F 92.1 °F 62.6 °F 38% 30.23 in 10.0 mi SSE 6.9 mph - N/A   Clear
1:55 PM 91.4 °F 93.2 °F 64.4 °F 41% 30.23 in 10.0 mi South 5.8 mph - N/A   Clear
2:15 PM 91.4 °F 94.0 °F 66.2 °F 43% 30.22 in 10.0 mi South 8.1 mph - N/A   Clear
2:35 PM 91.4 °F 94.0 °F 66.2 °F 43% 30.22 in 10.0 mi SSW 6.9 mph - N/A   Clear
2:55 PM 91.4 °F 94.0 °F 66.2 °F 43% 30.21 in 10.0 mi South 3.5 mph - N/A   Clear
3:15 PM 91.4 °F 94.0 °F 66.2 °F 43% 30.20 in 10.0 mi SSE 5.8 mph - N/A   Clear
3:35 PM 91.4 °F 94.0 °F 66.2 °F 43% 30.20 in 10.0 mi SSE 4.6 mph - N/A   Clear
3:55 PM 91.4 °F 94.0 °F 66.2 °F 43% 30.20 in 10.0 mi Calm Calm - N/A   Clear
4:15 PM 91.4 °F 94.0 °F 66.2 °F 43% 30.20 in 10.0 mi Calm Calm - N/A   Clear
4:35 PM 91.4 °F 94.0 °F 66.2 °F 43% 30.20 in 10.0 mi SSE 6.9 mph - N/A   Clear
4:55 PM 89.6 °F 92.2 °F 66.2 °F 46% 30.20 in 10.0 mi SE 6.9 mph - N/A   Clear
5:15 PM 89.6 °F 92.2 °F 66.2 °F 46% 30.19 in 10.0 mi SE 6.9 mph - N/A   Clear
5:35 PM 89.6 °F 92.2 °F 66.2 °F 46% 30.20 in 10.0 mi SSE 5.8 mph - N/A   Clear
5:55 PM 87.8 °F 90.4 °F 66.2 °F 49% 30.20 in 10.0 mi SSE 5.8 mph - N/A   Clear
6:15 PM 87.8 °F 90.4 °F 66.2 °F 49% 30.19 in 10.0 mi SE 5.8 mph - N/A   Clear
6:35 PM 86.0 °F 89.4 °F 68.0 °F 55% 30.19 in 10.0 mi SE 4.6 mph - N/A   Clear
6:55 PM 84.2 °F 87.3 °F 68.0 °F 58% 30.19 in 10.0 mi SE 3.5 mph - N/A   Clear
7:15 PM 80.6 °F 83.2 °F 68.0 °F 65% 30.19 in 10.0 mi SE 3.5 mph - N/A   Clear
7:35 PM 78.8 °F - 66.2 °F 65% 30.19 in 10.0 mi SE 3.5 mph - N/A   Clear
7:55 PM 75.2 °F - 66.2 °F 73% 30.19 in 10.0 mi SE 3.5 mph - N/A   Clear
8:15 PM 73.4 °F - 66.2 °F 78% 30.19 in 10.0 mi SSE 3.5 mph - N/A   Clear
8:35 PM 73.4 °F - 66.2 °F 78% 30.20 in 10.0 mi SSE 3.5 mph - N/A   Clear
8:55 PM 73.4 °F - 66.2 °F 78% 30.20 in 10.0 mi SSE 3.5 mph - N/A   Clear
9:15 PM 71.6 °F - 66.2 °F 83% 30.20 in 10.0 mi SE 3.5 mph - N/A   Clear
9:35 PM 71.6 °F - 64.4 °F 78% 30.21 in 10.0 mi SSE 3.5 mph - N/A   Clear
9:55 PM 71.6 °F - 64.4 °F 78% 30.21 in 10.0 mi SSE 4.6 mph - N/A   Clear
10:15 PM 71.6 °F - 64.4 °F 78% 30.21 in 10.0 mi SSE 5.8 mph - N/A   Clear
10:35 PM 71.6 °F - 64.4 °F 78% 30.21 in 10.0 mi SSE 4.6 mph - N/A   Clear
10:55 PM 71.6 °F - 64.4 °F 78% 30.20 in 10.0 mi SSE 4.6 mph - N/A   Clear
11:15 PM 71.6 °F - 64.4 °F 78% 30.21 in 10.0 mi SE 4.6 mph - N/A   Clear
11:35 PM 71.6 °F - 64.4 °F 78% 30.21 in 10.0 mi SSE 6.9 mph - N/A   Clear
11:55 PM 73.4 °F - 64.4 °F 73% 30.21 in 10.0 mi SSE 6.9 mph - N/A   Clear